Triuchirapalli, India

8:33 PM IST on September 15, 2019 (GMT +0530)
Tiruchirappalli

Weather History for VOTR - July, 2019

Change the Weather History Date:

Thursday, July 18, 2019

  Actual Average Record
Temperature  
Mean Temperature 90 °F -  
Max Temperature 102 °F 92 °F 102 °F (2019)
Min Temperature 79 °F 80 °F 72 °F (2016)
Cooling Degree Days 26    
Growing Degree Days 40 (Base 50)    
Moisture  
Dew Point 74 °F    
Average Humidity 65    
Maximum Humidity 94    
Minimum Humidity 29    
Precipitation  
Precipitation 0.01 in - - ()
Sea Level Pressure  
Sea Level Pressure 29.62 in    
Wind  
Wind Speed 7 mph ()    
Max Wind Speed 17 mph    
Max Gust Speed 23 mph    
Visibility 4.2 miles    
Events Rain    
Averages and records for this station are not official NWS values.
T = Trace of Precipitation, MM = Missing Value Source: Averaged Metar Reports

Daily Weather History Graph

Daily Weather History Graph

Search for Another Location

Airport or City:

Astronomy

Jul. 18, 2019 Rise Set
Actual Time 6:00 AM IST 6:41 PM IST
Civil Twilight 5:38 AM IST 7:04 PM IST
Nautical Twilight 5:11 AM IST 7:31 PM IST
Astronomical Twilight 4:44 AM IST 7:58 PM IST
Moon 7:57 PM IST (7/18) 7:01 AM IST (7/18)
Length of Visible Light 13h 26m
Length of Day
12h 40m
Full, 98% of the Moon is Illuminated
Jul 18
Full
Jul 25
Last Quarter
Aug 1
New
Aug 7
First Quarter
Aug 15
Full

Hourly Weather History & Observations

Time (IST) Temp. Heat Index Dew Point Humidity Pressure Visibility Wind Dir Wind Speed Gust Speed Precip Events Conditions
12:00 AM 82.4 °F 92.4 °F 78.8 °F 89% 29.71 in 2.5 mi South 4.6 mph - N/A Rain Light Rain
12:30 AM 82.4 °F 92.4 °F 78.8 °F 89% 29.68 in 3.1 mi SSE 4.6 mph - N/A   Light Drizzle
1:00 AM 82.4 °F 92.4 °F 78.8 °F 89% 29.65 in 3.1 mi South 4.6 mph - N/A   Mostly Cloudy
1:30 AM 82.4 °F 92.4 °F 78.8 °F 89% 29.65 in 3.1 mi South 4.6 mph - N/A   Mostly Cloudy
2:00 AM 82.4 °F 92.4 °F 78.8 °F 89% 29.65 in 3.1 mi South 4.6 mph - N/A   Scattered Clouds
2:30 AM 81 °F - 78 °F 89% 29.67 in 2 mi SSW 3.5 mph - -   Mist
2:30 AM 80.6 °F 88.1 °F 78.8 °F 94% 29.65 in 3.1 mi SSW 3.5 mph - N/A   Scattered Clouds
3:30 AM 80.6 °F 87.1 °F 77.0 °F 89% 29.62 in 3.1 mi West 5.8 mph - N/A   Scattered Clouds
4:00 AM 80.6 °F 87.1 °F 77.0 °F 89% 29.62 in 3.1 mi West 8.1 mph - N/A   Scattered Clouds
4:30 AM 80.6 °F 87.1 °F 77.0 °F 89% 29.62 in 3.7 mi West 8.1 mph - N/A   Scattered Clouds
5:00 AM 80.6 °F 87.1 °F 77.0 °F 89% 29.62 in 3.7 mi West 11.5 mph - N/A   Scattered Clouds
5:30 AM 81 °F - 77 °F 83% 29.62 in 2 mi West 11.5 mph - -   Partly Cloudy
6:00 AM 80.6 °F 86.2 °F 75.2 °F 84% 29.62 in 3.7 mi West 11.5 mph - N/A   Partly Cloudy
6:30 AM 80.6 °F 86.2 °F 75.2 °F 84% 29.62 in 3.7 mi West 9.2 mph - N/A   Partly Cloudy
7:00 AM 82.4 °F 88.2 °F 73.4 °F 74% 29.62 in 3.7 mi West 9.2 mph - N/A   Partly Cloudy
7:30 AM 82.4 °F 88.2 °F 73.4 °F 74% 29.62 in 3.7 mi West 10.4 mph - N/A   Partly Cloudy
8:00 AM 84.2 °F 90.9 °F 73.4 °F 70% 29.62 in 5.0 mi West 9.2 mph - N/A   Partly Cloudy
8:30 AM 86 °F - 72 °F 55% 29.63 in 2 mi West 11.5 mph - -   Scattered Clouds
8:30 AM 86.0 °F 91.8 °F 71.6 °F 62% 29.62 in 5.0 mi West 11.5 mph - N/A   Partly Cloudy
9:00 AM 87.8 °F 93.8 °F 71.6 °F 58% 29.62 in 5.0 mi West 11.5 mph - N/A   Partly Cloudy
9:30 AM 89.6 °F 96.2 °F 71.6 °F 55% 29.65 in 6.2 mi West 9.2 mph 20.7 mph N/A   Partly Cloudy
10:00 AM 91.4 °F 98.4 °F 71.6 °F 52% 29.65 in 6.2 mi West 11.5 mph 23.0 mph N/A   Scattered Clouds
10:30 AM 93.2 °F 100.5 °F 71.6 °F 49% 29.65 in 6.2 mi WNW 11.5 mph 23.0 mph N/A   Scattered Clouds
11:00 AM 95.0 °F 101.3 °F 69.8 °F 44% 29.65 in 6.2 mi WNW 11.5 mph 23.0 mph N/A   Scattered Clouds
11:30 AM 95 °F - 72 °F 38% 29.63 in 6 mi WNW 17.3 mph - -   Scattered Clouds
11:30 AM 95.0 °F 103.2 °F 71.6 °F 47% 29.62 in 6.2 mi WNW 11.5 mph 23.0 mph N/A   Scattered Clouds
12:00 PM 96.8 °F 105.1 °F 71.6 °F 44% 29.62 in 6.2 mi WNW 11.5 mph 23.0 mph N/A   Mostly Cloudy
12:30 PM 96.8 °F 105.1 °F 71.6 °F 44% 29.62 in 6.2 mi WNW 11.5 mph 23.0 mph N/A   Mostly Cloudy
1:30 PM 98.6 °F 107.7 °F 71.6 °F 42% 29.59 in 6.2 mi NW 11.5 mph 23.0 mph N/A   Scattered Clouds
2:00 PM 100.4 °F 109.3 °F 71.6 °F 39% 29.59 in 6.2 mi WNW 11.5 mph 23.0 mph N/A   Partly Cloudy
2:30 PM 100 °F - 70 °F 29% 29.56 in 6 mi West 11.5 mph - -   Scattered Clouds
2:30 PM 100.4 °F 107.8 °F 69.8 °F 37% 29.56 in 6.2 mi West 12.7 mph - N/A   Partly Cloudy
3:00 PM 100.4 °F 107.8 °F 69.8 °F 37% 29.56 in 6.2 mi WNW 10.4 mph - N/A   Partly Cloudy
3:30 PM 102.2 °F 110.0 °F 69.8 °F 35% 29.53 in 6.2 mi West 9.2 mph - N/A   Partly Cloudy
4:00 PM 102.2 °F 110.0 °F 69.8 °F 35% 29.53 in 5.0 mi NNW 9.2 mph - N/A   Mostly Cloudy
4:30 PM 102.2 °F 110.0 °F 69.8 °F 35% 29.53 in 5.0 mi NW 8.1 mph - N/A   Mostly Cloudy
5:00 PM 95.0 °F 103.2 °F 71.6 °F 47% 29.53 in 3.7 mi SE 11.5 mph - N/A   Mostly Cloudy
5:30 PM 94 °F - 73 °F 41% 29.54 in 2 mi South 11.5 mph - -   Haze
5:30 PM 93.2 °F 102.4 °F 73.4 °F 52% 29.53 in 3.7 mi South 11.5 mph - N/A   Mostly Cloudy
6:00 PM 93.2 °F 102.4 °F 73.4 °F 52% 29.56 in 3.7 mi SSW 11.5 mph - N/A   Mostly Cloudy
6:30 PM 91.4 °F 100.1 °F 73.4 °F 55% 29.59 in 3.7 mi SW 11.5 mph - N/A   Mostly Cloudy
7:00 PM 91.4 °F 102.5 °F 75.2 °F 59% 29.62 in 3.7 mi West 12.7 mph - N/A   Mostly Cloudy
7:30 PM 87.8 °F 99.7 °F 77.0 °F 70% 29.62 in 3.7 mi West 12.7 mph - N/A   Mostly Cloudy
8:00 PM 84.2 °F 94.1 °F 77.0 °F 79% 29.65 in 3.7 mi West 6.9 mph - N/A   Mostly Cloudy
8:30 PM 83 °F - 76 °F 74% 29.64 in 2 mi SW 3.5 mph - -   Mostly Cloudy
8:30 PM 82.4 °F 89.5 °F 75.2 °F 79% 29.65 in 3.7 mi SW 3.5 mph - N/A   Light Drizzle
9:00 PM 82.4 °F 89.5 °F 75.2 °F 79% 29.65 in 3.7 mi WSW 4.6 mph - N/A   Light Drizzle
9:30 PM 82.4 °F 89.5 °F 75.2 °F 79% 29.62 in 3.7 mi West 4.6 mph - N/A   Mostly Cloudy
10:00 PM 82.4 °F 89.5 °F 75.2 °F 79% 29.65 in 3.7 mi WSW 4.6 mph - N/A   Mostly Cloudy
10:30 PM 82.4 °F 89.5 °F 75.2 °F 79% 29.65 in 3.7 mi WSW 4.6 mph - N/A   Scattered Clouds
11:00 PM 82.4 °F 89.5 °F 75.2 °F 79% 29.65 in 3.7 mi West 4.6 mph - N/A   Scattered Clouds
11:30 PM 82 °F - 76 °F 76% 29.66 in 2 mi West 5.8 mph - -   Haze
11:30 PM 82.4 °F 89.5 °F 75.2 °F 79% 29.65 in 3.7 mi West 5.8 mph - N/A   Scattered Clouds